Theta_e
312 313 314 314 314 313 313 313 313 312 313 313 313 312 313 310 304 304 304 304 304 305 305 305 304 305 306 306 306 307 307 307 307 308 308 308 307 307 307 306 307 307 307 307 308 308 308 307 307 308 307 307 309 308
311 313 312 313 313 313 312 312 312 312 312 313 313 313 313 311 306 304 303 303 303 303 304 305 305 305 304 305 305 306 307 308 308 307 308 307 307 306 306 304 305 305 306 306 307 307 308 307 307 308 308 308 308 308
311 311 311 311 311 311 311 311 311 311 311 311 312 312 312 312 310 303 304 303 303 303 304 304 305 305 304 304 304 304 306 306 307 308 308 308 308 306 305 305 305 304 306 303 305 304 306 307 307 307 307 308 307 306
307 308 309 310 309 310 310 310 310 310 310 310 312 312 312 312 310 309 303 303 303 303 302 305 305 304 304 304 304 303 304 305 305 306 307 306 307 307 304 305 305 305 304 304 303 304 305 306 306 307 307 307 306 305
304 305 306 307 308 308 308 307 308 309 309 309 311 311 311 311 310 308 305 302 304 302 303 303 303 304 304 303 303 302 302 303 304 305 304 305 307 306 305 304 306 306 305 305 305 306 306 307 307 307 306 306 306 305
299 301 303 305 304 304 306 306 306 307 308 309 309 310 311 311 309 307 303 306 303 304 302 302 303 303 302 300 301 301 301 301 303 304 304 304 306 306 304 304 306 307 306 306 306 306 307 307 307 306 305 305 304 304
299 298 298 299 301 303 303 304 305 307 307 308 308 309 310 310 309 307 305 305 304 304 302 301 302 300 298 298 298 298 299 300 302 302 303 304 304 305 302 305 305 307 308 307 307 306 306 306 306 306 305 305 304 304
298 298 298 297 298 298 299 301 303 304 304 306 306 307 309 309 309 304 306 305 303 303 302 301 302 298 297 298 298 298 299 299 300 301 303 301 303 303 304 304 305 305 306 306 306 307 307 307 306 305 305 305 304 302
291 292 296 297 297 297 297 298 300 302 303 303 303 305 306 306 303 302 305 304 302 303 300 299 303 306 297 299 298 297 299 299 299 300 301 301 301 303 304 304 304 304 305 306 306 306 306 306 306 305 304 304 304 300
290 290 290 294 297 296 296 296 297 299 299 301 302 305 303 302 303 304 302 300 299 300 301 298 302 301 298 298 298 299 298 299 301 300 300 301 302 303 304 304 304 304 304 305 306 305 305 306 306 305 304 304 301 300
289 289 290 291 296 297 296 296 295 295 298 301 303 303 301 300 301 300 299 298 297 298 297 298 302 299 299 299 300 300 300 300 301 301 300 302 302 300 304 303 304 304 303 304 304 305 305 305 304 304 303 300 300 301
291 290 290 290 293 297 296 295 294 293 298 301 303 301 298 299 299 299 299 299 299 301 299 299 300 303 299 301 302 299 302 300 303 299 300 300 299 303 304 304 303 302 302 302 302 303 304 304 302 301 300 301 301 301
291 291 291 290 291 295 297 296 294 293 295 301 300 299 297 297 297 299 301 303 302 301 300 300 300 301 299 300 301 300 302 303 298 298 300 298 300 302 303 301 301 301 301 302 301 303 303 303 301 301 301 301 300 300
291 291 291 291 291 292 296 297 294 293 297 299 298 298 297 300 298 299 300 300 302 302 301 300 299 300 300 299 301 302 302 299 299 297 299 299 302 302 302 302 301 301 299 299 302 301 302 303 302 301 301 300 300 300
291 291 291 291 291 291 293 297 295 293 296 298 297 299 298 299 302 302 302 303 301 301 300 300 300 300 299 301 300 302 299 301 300 300 300 303 303 302 302 304 304 301 299 300 301 301 302 302 302 303 301 301 300 300
290 291 291 291 291 291 292 295 296 294 297 296 297 297 299 300 300 300 299 300 300 300 300 300 300 301 301 301 301 302 302 301 301 300 302 303 305 305 304 303 304 302 300 300 302 302 301 302 302 301 301 301 301 300
291 291 291 292 292 291 291 292 296 296 295 295 295 296 298 299 300 302 301 300 299 300 299 300 301 301 300 302 302 301 301 300 303 303 304 307 308 304 304 304 304 303 300 299 301 301 302 301 301 301 301 301 301 300
292 291 291 292 292 292 292 292 295 295 295 295 296 296 295 296 298 299 300 300 299 299 299 301 300 301 301 302 300 298 301 302 303 303 304 306 303 303 303 302 302 306 300 299 300 301 300 301 301 301 301 300 300 300
291 291 291 292 292 292 293 294 294 294 294 295 295 296 296 297 298 299 299 299 299 300 299 298 300 301 300 298 298 303 303 304 304 303 303 303 302 303 303 304 304 307 306 305 302 299 300 300 300 300 300 300 300 301
291 291 291 291 292 293 294 294 294 294 295 294 294 295 295 296 296 296 296 297 298 298 298 298 298 300 300 301 302 303 303 303 302 301 300 300 301 301 302 303 304 304 305 305 306 301 297 299 300 300 300 299 299 300
291 290 290 291 294 294 293 294 293 293 294 294 295 294 295 295 296 297 297 297 298 297 294 298 298 299 298 298 298 300 300 300 299 299 299 299 300 300 300 301 301 301 302 302 305 306 305 303 299 299 301 300 299 299
291 290 290 292 294 294 293 294 293 293 293 295 295 294 295 292 294 295 295 296 296 296 296 295 295 295 296 296 297 297 298 298 298 299 299 299 299 299 299 299 299 300 300 301 301 302 304 305 304 304 302 304 303 298
290 291 292 293 293 293 294 293 293 292 293 293 294 294 288 292 295 295 295 296 296 295 295 295 295 295 296 296 297 297 297 297 298 298 298 298 299 299 299 299 299 299 299 299 300 300 301 301 301 302 302 300 300 298
291 292 293 293 292 293 293 293 293 293 293 294 294 287 287 289 295 293 289 294 295 295 296 295 296 296 296 296 297 297 295 297 298 298 298 298 298 298 298 299 299 299 299 299 299 299 299 300 300 299 300 303 302 302
291 292 293 293 293 292 292 291 288 291 292 289 288 287 288 294 288 286 287 290 294 294 295 294 294 295 296 296 297 297 296 297 298 298 299 299 298 299 299 299 299 299 299 299 299 299 299 299 298 299 301 301 302 302
292 292 293 292 289 289 289 289 291 290 285 286 289 291 292 292 292 290 288 293 293 293 294 294 294 295 295 295 296 296 297 297 298 298 298 299 299 298 299 298 299 299 299 299 299 299 299 298 298 298 298 300 301 299
293 293 293 292 292 291 289 290 291 288 289 290 288 288 291 293 293 289 293 293 293 293 293 293 294 295 295 295 295 295 295 294 296 297 297 297 297 297 297 298 298 299 298 298 298 298 298 298 298 299 299 299 299 298
291 291 287 289 289 289 284 286 287 288 286 291 290 288 291 289 288 293 293 293 293 293 293 294 295 295 295 294 294 294 293 292 291 292 293 294 294 296 297 297 298 297 297 298 298 298 298 298 297 297 297 296 296 295
290 291 290 289 285 287 289 288 285 290 292 291 290 290 286 292 293 293 293 292 292 293 293 293 293 292 292 293 292 292 292 292 291 291 291 292 293 294 297 297 298 297 297 297 297 297 297 296 296 295 293 294 294 294
288 290 288 285 284 287 287 290 291 292 292 292 292 292 292 292 292 292 292 292 292 292 292 292 293 292 292 291 291 291 291 291 291 291 291 292 292 294 296 296 297 298 296 297 296 296 296 295 294 293 294 293 293 293
290 290 283 286 284 290 291 292 291 292 291 291 291 291 291 291 291 292 292 292 292 292 292 292 292 291 291 291 291 291 291 291 291 291 292 293 294 294 296 296 295 295 295 296 296 295 294 294 293 293 293 293 293 292
288 287 283 281 281 289 288 288 288 289 290 289 289 290 290 289 289 290 291 291 291 291 291 291 290 290 291 290 290 290 290 291 291 292 293 293 295 298 297 295 295 294 295 295 295 294 293 293 293 292 292 292 291 289
285 285 284 283 278 277 285 287 284 280 283 282 288 289 289 289 288 290 290 290 290 290 290 290 290 290 290 290 291 291 291 291 292 293 294 294 295 297 296 295 295 295 295 295 294 294 293 292 292 292 291 290 289 289
Wind_Speed
30 28 25 26 26 25 24 23 22 21 19 16 16 16 17 12 12 13 12 10 10 6 14 13 13 11 8 7 3 4 2 4 4 3 2 4 3 4 2 5 6 8 7 5 5 5 10 14 7 7 5 3 7 8
26 26 24 30 28 25 25 24 23 22 20 17 17 16 18 16 14 15 16 12 11 14 12 14 16 16 22 15 11 10 1 1 7 3 3 2 2 2 4 4 3 4 7 3 9 7 5 24 15 15 14 9 10 10
22 27 28 27 27 26 24 24 23 23 21 19 17 16 18 19 17 18 19 14 12 11 22 18 16 15 30 28 24 9 8 9 5 6 3 3 5 1 4 6 5 5 13 4 2 9 19 27 28 26 26 22 19 16
23 24 22 25 24 24 25 24 25 25 23 19 19 18 18 21 20 21 21 17 14 6 5 7 8 11 12 17 28 33 24 12 11 6 4 3 3 8 4 4 4 6 5 5 7 18 26 37 35 28 24 21 23 18
24 23 23 23 24 24 24 25 24 25 24 21 20 19 20 20 20 22 21 21 19 13 4 8 18 28 25 18 15 22 30 22 10 6 4 4 5 6 5 3 12 16 11 7 11 14 17 14 11 9 13 23 25 17
21 23 26 24 25 23 23 24 24 24 25 23 21 19 19 20 21 19 10 22 28 24 5 4 6 12 14 12 20 22 20 23 16 7 6 8 15 6 3 4 9 22 37 39 34 32 26 22 14 12 12 12 15 19
22 20 21 23 24 26 26 26 22 17 21 22 22 21 19 20 27 27 9 5 7 26 6 5 5 5 8 9 8 9 15 11 12 7 7 8 4 12 3 11 12 17 27 34 41 42 32 32 20 18 18 17 15 19
26 23 23 21 21 22 24 23 23 24 26 21 23 23 19 20 26 29 24 13 13 20 8 3 3 3 9 5 5 8 6 9 10 6 5 5 8 10 6 30 35 31 35 44 42 33 38 32 20 18 21 18 20 19
26 28 27 24 22 21 22 23 24 22 22 23 19 22 24 19 17 22 30 22 21 12 6 6 3 2 10 5 5 8 8 4 6 4 5 7 4 8 23 26 28 23 20 19 17 23 33 34 33 30 27 26 20 17
25 25 26 27 24 22 21 21 22 21 20 17 19 9 6 7 23 20 17 15 18 12 11 4 9 2 11 9 6 6 6 3 3 6 6 4 7 23 54 48 37 32 29 27 28 23 21 25 32 30 28 24 18 14
23 24 25 25 23 21 19 19 18 17 15 12 7 9 9 7 14 9 7 7 10 5 9 9 22 8 16 4 4 10 3 3 3 3 4 3 4 18 39 33 32 33 38 39 35 30 26 24 21 21 17 16 13 10
25 24 24 24 24 21 19 18 16 15 11 10 7 10 11 8 7 4 4 4 6 5 9 8 13 23 9 8 5 6 3 4 5 8 2 4 6 27 22 20 18 17 18 23 28 35 32 26 19 15 16 13 10 7
27 26 25 25 24 23 20 18 17 15 15 14 8 5 7 6 4 6 8 4 4 7 12 11 3 12 8 7 4 4 6 5 8 3 4 6 14 17 25 24 21 18 14 15 17 25 31 24 19 16 13 9 8 7
29 29 27 26 25 24 22 19 17 15 12 8 7 6 6 5 6 5 4 3 6 8 21 18 6 5 6 5 3 4 4 3 3 4 7 3 14 13 17 19 15 15 14 14 13 17 28 28 24 12 11 8 6 10
29 29 28 28 26 25 24 22 20 20 13 9 7 6 9 10 6 3 10 4 4 12 22 9 3 7 2 3 3 3 4 4 6 5 3 8 10 16 18 18 18 12 12 12 10 16 23 25 25 19 12 7 9 12
28 28 30 29 27 26 25 25 23 25 10 11 9 6 5 3 5 6 6 5 9 18 14 5 3 3 5 4 6 6 4 7 5 3 10 13 20 21 24 23 22 15 12 9 9 12 17 23 21 17 11 8 10 13
27 30 29 28 27 26 24 25 22 15 11 7 8 15 11 8 7 7 10 10 14 20 4 4 7 8 2 4 5 4 6 4 4 6 10 19 29 27 28 25 22 19 15 14 12 14 18 19 18 18 14 7 12 14
29 29 27 27 26 25 24 27 14 11 11 12 7 17 15 16 16 17 11 11 16 11 4 3 4 6 5 5 4 4 17 24 22 21 15 17 26 25 26 21 17 19 17 18 19 20 21 21 22 22 18 14 17 19
32 30 28 28 24 21 9 10 19 6 14 9 21 18 23 18 20 17 14 14 17 13 5 4 5 3 3 5 6 19 18 18 22 26 28 31 34 32 25 18 18 15 23 26 25 29 30 29 28 26 24 21 21 20
31 30 29 26 26 18 7 10 12 8 6 12 18 23 26 25 25 24 21 20 22 14 8 5 5 10 9 19 20 23 26 28 31 29 30 30 28 28 30 24 23 27 29 28 24 27 30 33 33 33 32 29 27 22
29 30 29 27 31 28 11 6 8 7 7 10 15 22 10 13 22 20 22 24 21 10 5 22 28 31 35 37 40 39 39 37 33 31 31 35 37 30 33 35 37 39 38 34 30 27 30 33 35 38 33 34 33 26
30 27 28 27 19 11 15 17 7 5 6 4 12 17 7 6 8 17 23 16 12 30 32 35 38 39 38 40 40 36 39 41 38 36 33 33 36 40 38 38 33 33 34 37 35 35 35 33 34 34 34 32 32 31
26 23 26 20 14 13 4 18 12 13 5 5 7 4 3 4 11 13 6 14 19 32 36 38 44 46 40 40 38 40 41 43 44 40 39 37 38 40 41 43 40 37 39 41 39 36 37 39 40 41 39 29 26 32
24 17 19 12 14 4 9 8 10 10 9 6 6 4 3 5 9 5 4 14 31 31 32 38 40 37 34 31 33 40 40 38 33 35 36 38 37 42 39 38 37 36 37 37 36 36 34 33 30 36 33 28 29 32
9 11 7 7 10 5 6 5 4 4 4 5 6 4 3 9 3 4 4 7 28 36 38 36 34 34 32 33 34 37 38 31 29 33 36 34 34 37 40 40 38 35 31 33 34 35 35 33 31 32 32 30 32 31
11 11 12 9 6 6 6 6 7 6 3 3 5 4 7 3 4 6 5 27 30 33 32 32 33 29 27 30 32 33 31 26 24 28 34 29 30 34 40 38 38 40 32 32 31 33 33 32 32 34 36 36 33 26
6 4 6 7 10 9 4 2 5 3 6 7 4 4 4 5 6 5 20 28 30 30 27 24 19 17 15 18 25 28 27 22 23 25 28 33 35 36 36 40 41 43 36 32 29 29 30 30 30 30 30 29 25 22
6 9 7 11 5 4 3 4 6 8 4 6 8 6 8 9 7 14 20 18 17 17 21 20 18 24 28 30 30 31 32 31 30 33 37 38 36 34 32 35 38 39 39 35 32 31 30 28 26 25 21 21 19 18
5 10 12 5 4 4 6 7 5 10 13 18 8 9 7 28 37 29 27 29 30 24 22 29 30 31 33 37 38 38 39 39 38 40 39 41 39 36 30 28 25 23 23 27 31 28 23 20 18 17 15 14 13 14
7 19 5 5 6 8 9 19 19 33 29 30 28 24 26 30 35 36 34 32 30 33 37 38 40 39 41 41 44 47 46 41 39 39 38 39 38 31 30 27 21 16 16 16 19 17 16 16 15 13 13 14 15 15
16 18 4 5 6 18 33 29 28 23 23 27 33 28 33 35 36 35 34 36 37 39 41 45 47 49 47 47 47 48 49 43 38 33 28 28 25 25 27 27 21 17 14 14 14 15 15 14 12 13 14 13 13 12
13 12 6 5 4 8 10 8 7 8 9 11 13 19 20 17 13 30 37 39 41 44 50 50 49 49 46 48 45 42 39 36 34 31 28 25 20 17 19 15 13 11 11 13 14 15 15 12 12 13 13 13 12 10
4 4 3 2 1 2 7 6 2 4 5 5 12 25 24 18 12 34 43 41 42 45 47 49 49 46 43 40 37 34 31 29 27 24 21 19 18 13 12 12 12 13 13 13 13 12 13 14 13 12 12 10 9 11
Wind_Direction
266 269 268 271 273 275 272 273 278 285 291 291 288 296 298 283 262 257 258 251 241 249 272 260 239 213 189 198 209 161 117 213 160 229 225 237 222 211 290 237 174 180 172 192 187 222 259 151 128 177 200 168 190 214
263 258 263 269 268 269 268 267 272 277 282 286 281 281 289 287 263 253 255 256 253 249 257 269 266 253 235 221 217 201 161 125 216 190 243 294 287 230 210 258 169 240 202 210 191 221 225 189 217 222 233 206 211 232
256 255 257 261 268 267 264 263 266 275 282 280 281 276 281 282 267 254 254 253 264 274 288 263 274 269 242 234 226 213 217 212 225 238 307 260 235 223 215 227 218 244 258 235 21 250 251 258 250 248 243 247 255 258
272 275 275 272 267 274 267 268 270 272 276 277 278 272 274 274 269 258 250 251 243 265 271 270 259 267 258 241 230 230 231 210 214 230 250 240 223 228 241 262 216 212 149 216 260 276 278 272 264 260 256 251 248 263
266 270 271 267 265 271 278 277 273 273 272 272 273 270 273 268 265 256 251 247 236 222 268 284 286 280 263 247 237 229 229 228 209 182 216 227 237 264 261 261 251 217 219 214 248 241 236 268 285 263 254 244 255 262
277 271 271 269 267 270 272 273 278 275 274 272 273 272 265 264 250 235 251 258 236 222 254 281 275 255 246 238 226 222 224 224 217 207 223 236 230 198 250 257 226 232 232 237 248 257 265 272 271 250 244 256 266 269
274 277 275 272 272 271 272 271 266 277 281 277 282 269 259 257 245 217 209 188 191 200 218 269 262 254 229 195 190 201 200 199 209 237 243 245 189 199 229 257 217 235 245 243 245 252 260 262 265 273 271 267 268 285
270 271 274 275 274 273 272 270 269 273 276 281 283 279 266 266 257 215 218 207 176 180 202 244 245 254 191 169 165 181 184 197 210 236 241 244 209 212 250 242 258 256 254 257 257 254 252 254 256 248 250 256 285 287
269 266 267 272 275 277 275 274 272 270 272 281 286 289 282 212 203 209 222 219 188 195 206 213 209 204 176 172 149 171 176 215 227 218 226 186 195 218 238 247 251 247 244 253 271 259 248 248 249 246 249 263 271 274
272 270 267 266 271 274 276 277 275 273 276 278 280 262 249 219 214 225 201 186 198 215 228 225 197 193 167 177 187 158 184 229 243 218 199 232 254 261 258 255 258 258 255 256 254 250 254 241 243 244 244 251 253 258
274 276 270 264 265 270 270 271 275 278 269 262 234 213 221 191 172 191 199 182 190 222 217 210 192 170 195 153 177 206 183 207 252 188 198 242 254 247 266 265 270 270 259 251 250 255 253 263 267 247 228 223 229 240
272 273 273 268 261 262 262 263 264 258 243 248 250 216 174 196 204 196 194 213 208 225 186 184 212 208 158 164 157 180 215 183 247 138 222 255 250 270 287 298 303 289 264 255 249 243 241 247 245 221 206 205 216 236
269 270 269 268 263 259 257 255 255 254 254 257 245 225 198 191 204 222 197 203 203 195 179 178 166 167 149 171 170 183 211 219 125 205 233 233 260 292 311 319 310 296 279 263 254 233 229 225 218 205 198 203 227 269
266 265 266 267 264 255 254 251 248 241 225 233 209 220 206 196 237 202 206 187 203 189 162 165 141 158 159 169 185 211 195 142 207 236 234 245 276 318 334 335 320 301 294 290 275 233 218 210 202 198 202 217 268 295
265 262 262 262 262 256 248 245 236 225 217 229 200 233 215 218 226 275 248 218 156 174 151 152 148 161 166 202 193 190 178 231 219 232 227 261 320 332 333 343 342 305 296 303 268 219 212 211 215 222 212 238 277 292
262 261 255 257 258 256 249 244 229 219 217 206 230 240 237 240 239 225 228 211 185 165 160 168 164 199 196 206 181 198 185 224 241 217 251 331 336 334 330 326 326 318 282 276 267 213 197 197 207 205 215 248 280 292
257 257 256 254 254 255 250 241 229 213 205 212 222 214 226 265 270 273 237 220 205 170 202 196 191 211 160 200 194 188 215 225 176 217 326 337 307 298 312 309 315 325 287 257 237 222 209 205 210 217 229 259 284 292
249 255 258 254 253 254 252 235 244 206 208 210 202 206 209 232 239 246 242 229 184 203 203 260 266 204 193 189 224 229 233 254 272 293 290 297 304 313 319 299 311 325 307 273 257 241 235 232 231 235 243 265 287 299
250 254 253 251 246 234 224 223 226 254 220 231 213 209 214 220 233 240 234 227 229 226 214 239 248 212 225 229 231 269 277 288 299 306 304 309 313 310 312 316 289 289 328 327 301 267 251 246 245 248 256 261 276 297
250 249 250 251 242 226 238 212 207 228 209 219 216 211 218 229 228 226 231 229 228 220 218 220 221 235 243 261 272 278 287 294 301 305 305 306 307 304 304 294 298 307 304 298 284 286 264 259 256 256 257 263 265 281
249 248 246 245 237 221 229 240 221 216 208 207 223 204 209 235 225 213 216 222 203 216 228 239 249 255 260 266 270 272 277 284 289 290 288 295 296 294 290 284 286 288 287 285 272 272 272 277 275 269 268 270 269 269
244 245 247 240 230 213 220 220 205 194 205 243 192 196 188 177 202 220 225 206 227 234 236 246 250 255 259 261 266 271 276 282 285 286 286 284 282 285 284 285 283 278 277 278 274 267 269 268 276 275 270 273 270 260
242 242 227 219 206 209 210 197 180 179 192 186 175 198 237 209 210 216 207 221 235 244 247 250 257 261 255 262 266 271 274 275 274 276 277 276 274 274 275 278 279 276 276 278 277 275 268 272 269 268 268 259 255 253
234 240 198 197 190 200 169 192 185 171 192 174 180 210 244 202 179 185 222 233 241 248 249 253 256 255 261 263 261 266 279 280 274 276 280 276 272 276 274 272 274 272 273 280 280 281 279 279 271 270 253 253 269 272
231 211 214 175 171 150 186 177 182 182 178 191 178 235 225 173 168 216 214 240 245 242 248 255 259 260 256 260 263 269 282 277 276 274 281 279 275 277 277 276 277 275 275 272 276 278 277 276 272 254 249 268 275 269
230 216 188 176 144 145 175 172 182 185 186 179 214 177 156 154 203 239 222 235 243 249 253 257 260 261 262 262 268 273 283 289 273 270 276 284 283 275 275 273 274 279 280 277 276 274 273 271 265 261 261 266 266 262
223 181 147 141 156 145 128 154 174 152 177 192 195 168 149 212 225 240 246 247 250 263 272 273 256 251 265 285 288 279 279 298 289 288 288 291 289 285 279 275 272 279 286 283 279 274 270 269 267 265 264 263 257 253
196 164 150 159 154 205 169 154 173 186 203 208 144 179 186 201 223 235 240 252 254 256 266 251 249 257 269 278 285 287 285 294 293 289 286 286 287 286 286 277 277 279 275 271 271 265 264 262 264 264 261 258 247 234
157 171 146 161 115 173 200 191 209 215 201 183 190 213 224 231 241 247 256 264 269 270 260 271 277 281 282 282 287 285 285 290 287 285 286 283 289 286 288 294 294 283 272 260 260 259 264 254 249 250 246 230 218 216
179 165 136 153 164 207 218 205 223 229 225 221 225 240 250 254 255 258 261 264 266 268 276 276 278 278 279 282 283 284 284 286 285 282 278 283 288 291 289 288 289 289 277 270 261 253 238 244 237 206 196 200 207 207
162 171 127 157 203 225 231 230 229 232 233 237 241 242 251 262 268 268 267 270 272 273 271 270 271 273 274 274 275 277 279 285 289 291 290 290 285 278 282 285 281 279 266 238 223 226 219 209 201 202 202 204 204 205
168 178 165 191 251 239 230 222 226 231 241 232 251 256 261 259 255 270 272 272 266 262 267 269 268 272 276 276 277 275 278 281 284 286 284 276 271 278 282 266 259 249 220 198 195 199 202 208 214 215 209 205 205 202
169 177 192 174 303 296 198 181 209 285 239 237 240 249 249 254 261 274 276 268 262 265 268 272 276 278 280 280 278 278 276 278 281 276 262 252 242 258 267 243 219 201 191 190 192 195 206 215 215 212 206 201 199 195